Location: Bucaritos
(10.0779°N, 67.0369°W)
Time: 04:51:32
(UTC+00:00)

Cosmos 1943 Rocket - Pass Details

Date: 27 June 2022
Orbit: 812 x 843 km, 71.0° (Epoch: 18 August)

Event Time Altitude Azimuth Distance (km) Brightness Sun altitude
Rises 23:33:50 0° 10° (N) 3,370 5.5 -10.0°
Reaches altitude 10° 23:37:04 10° 29° (NNE) 2,431 4.6 -10.8°
Maximum altitude 23:40:45 18° 71° (ENE) 1,923 3.7 -11.6°
Enters shadow 23:42:58 15° 99° (E) 2,116 3.7 -12.1°
